Regional Weather Roundup
Issued by NWS Grand Forks, ND

Home | Current Version | Previous Version | Graphics & Text | Print | Product List | Glossary On
Versions: 1 2 3 4 5 6 7 8 9 10 11 12 13 14 15 16 17 18 19 20 21 22 23 24 25 26 27 28 29 30 31 32 33 34 35 36 37 38 39 40 41 42 43 44 45 46 47 48 49 50
000
ASUS43 KFGF 181331
RWRFGF
PRAIRIE TO PINES  WEATHER ROUNDUP
NATIONAL WEATHER SERVICE EASTERN NORTH DAKOTA/GRAND FORKS ND
800 AM CDT WED OCT 18 2017

 **SATELLITE DATA USED TO AUGMENT SKY COVER AT AUTOMATED STATIONS**
 *****  WEATHER ACROSS EASTERN NORTH DAKOTA  *****

CITY           SKY/WX    TMP DP  RH WIND       PRES   REMARKS
GRAND FORKS    MOCLDY    60  34  37 W15G24    29.63R
GRAND FRKS AFB FAIR      58  32  37 W14       29.64R
DEVILS LAKE    FAIR      50  34  54 W24G35    29.72R
FARGO          FAIR      51  41  68 SW9       29.69R
WAHPETON ARPT  NOT AVBL
$$

 ***** WEATHER ACROSS CENTRAL AND WESTERN NORTH DAKOTA  *****

CITY           SKY/WX    TMP DP  RH WIND       PRES   REMARKS
BISMARCK       FAIR      54  32  43 NW18      29.86R
MINOT          FAIR      47  27  45 W20G28    29.78R
JAMESTOWN      FAIR      55  30  38 NW16      29.74R
MINOT AFB      FAIR      45  26  46 W18       29.76R
GARRISON         N/A     47  27  45 NW22G33   29.84R
WILLISTON      FAIR      41  22  46 W13       29.90R
DICKINSON      FAIR      42  27  55 NW13      29.90R
HETTINGER      FAIR      45  25  45 NW14      29.94R
$$

 *****  OTHER AIRPORT OBSERVATIONS IN OUR AREA  *****

CITY           SKY/WX    TMP DP  RH WIND       PRES   REMARKS
WALHALLA       FAIR     N/A N/A N/A W28G41    29.57R
GRAFTON AIRPOR FAIR      55  37  50 W17G25    29.66R
VALLEY CITY AR FAIR      54  32  43 W18       29.75R
CANDO          FAIR      46  32  57 W21G28    29.74R
CAVALIER APRT  FAIR      54  36  50 W20G38    29.61R
GWINNER          N/A     46  39  76 CALM      29.75R
SHEYENNE NWR     N/A     50  39  66 W7        29.95
ROLLA          FAIR      45  28  53 W22G31    29.67R
 ***** THE ABOVE OBSERVATIONS ARE NON NWS ARE NOT QUALITY
       CONTROLLED AND MAY MIS-REPORT RAIN FOR SNOW...
$$

  *****  WEATHER ACROSS NORTHERN MINNESOTA  *****

CITY           SKY/WX    TMP DP  RH WIND       PRES   REMARKS
FLAG ISLAND    FAIR      57  37  47 SW17      29.46R
WARROAD        FAIR      57  39  51 W16G23    29.53R
ROSEAU         FAIR      55  39  54 SW12      29.54R
HALLOCK        FAIR      55  36  47 W16       29.59R
THF RVR FALLS  FAIR      52  37  56 SW12      29.61S
BAUDETTE       FAIR      59  38  45 SW10G25   29.53S
WASKISH        FAIR      57  43  58 SW10G18   29.60R
CROOKSTON      FAIR      48  37  66 W9        29.65R
STEPHEN NDAWN    N/A     55  36  47 W16         N/A
GREENBUSH NDAW   N/A     54  34  47 W12         N/A
$$
  *****  WEATHER ACROSS CENTRAL AND WEST MINNESOTA  *****

CITY           SKY/WX    TMP DP  RH WIND       PRES   REMARKS
FOSSTON        FAIR      50  37  62 SW10      29.67R
BEMIDJI        FAIR      53  39  59 SW6       29.64R
PARK RAPIDS    FAIR      48  41  76 SE5       29.67R
ELBOW LAKE     FAIR      47  42  84 W7        29.73R
WADENA         FAIR      54  43  66 W7        29.70R
DETROIT LAKES  FAIR      55  41  58 W8        29.71R
MOORHEAD       FAIR      48  39  71 SW7       29.72R
FERGUS FALLS   FAIR      48  43  81 W6        29.74R
MORRIS MN      FAIR      48  45  87 W7        29.73R
STAPLES        FAIR      54  41  62 W13       29.72R
$$
  *****  WEATHER ELSEWHERE ACROSS MINNESOTA  *****

CITY           SKY/WX    TMP DP  RH WIND       PRES   REMARKS
DULUTH         FAIR      52  43  71 SW14      29.73S
INTRNTL FALLS  FAIR      59  38  45 SW13      29.54R
ELY            FAIR      57  37  47 S9G16     29.64F
CLOQUET        FAIR      52  43  71 S10G16    29.71F
WHEATON        FAIR      54  39  58 W8        29.74R
BRAINERD       FAIR      52  41  66 S12       29.69F
HIBBING        FAIR      47  39  74 S6        29.65F
ALEXANDRIA     FAIR      55  43  63 W12       29.74R
SAINT CLOUD    FAIR      47  44  90 S8        29.74F
MINNEAPOLIS    FAIR      50  46  86 SE8       29.81F
$$

  *****  WEATHER ACROSS SOUTH DAKOTA  *****

CITY           SKY/WX    TMP DP  RH WIND       PRES   REMARKS
SIOUX FALLS    FAIR      51  45  79 S5        29.79R
BROOKINGS      FAIR      47  42  83 S7        29.76R
WATERTOWN      FAIR      41  40  96 CALM      29.74R
HURON          FAIR      40  38  93 CALM      29.77R
SISSETON         N/A     58  40  51 W20G30    29.72R
ABERDEEN       FAIR      39  37  92 CALM      29.78R
MITCHELL       FAIR      45  40  82 S3        29.77R
PIERRE         FAIR      50  35  56 NW15      29.82R
MOBRIDGE       FAIR      55  34  45 NW8       29.83R
RAPID CITY     FAIR      55  25  31 N20       29.97R
$$

  *****  SOME WEATHER IN NEARBY STATES *****

CITY           SKY/WX    TMP DP  RH WIND       PRES   REMARKS
GLASGOW MT     FAIR      37  26  64 W8        29.94R
GREAT FALLS MT FAIR      45  19  35 E8        29.96R
CHEYENNE WY    FAIR      53  10  18 W16       30.11R
SCOTTSBLUFF NE FAIR      47  22  37 W9        29.99R
OMAHA NE       FAIR      50  44  80 S14       29.93F
DES MOINES IA  FAIR      53  45  74 S12       29.98F
DAVENPORT IA   FAIR      50  41  71 S9        30.10S
CHICAGO IL     FAIR      50  42  74 S8        30.15S
EAU CLAIRE WI  FAIR      50  44  80 S10       29.87F
LA CROSSE WI   FAIR      55  46  71 S9        29.95S
$$

  *****  SOME NATIONAL WEATHER *****

CITY           SKY/WX    TMP DP  RH WIND       PRES   REMARKS
LA GUARDIA NY  FAIR      56  39  53 SW7       30.32R
RALEIGH NC     FAIR      46  44  93 CALM      30.39R
ATLANTA GA     FAIR      51  43  74 E10       30.34R
NEW ORLEANS LA FAIR      68  60  75 E9        30.17R
OKLAHOMA CITY  FAIR      49  43  80 S9        30.07F
ALBUQUERQUE NM FAIR      50  19  29 E5        30.22S
SALT LAKE CITY FAIR      41  33  73 CALM      30.18R
LOS ANGELES CA FAIR      69  63  81 VRB5      29.91S
BOISE ID       FAIR      43  30  60 SE8       30.12R
SEATTLE WA     MOCLDY    48  40  73 SE7       29.94F
$$

*** WEATHER ACROSS MANITOBA...SASKATCHEWAN AND ONTARIO ***
                ***ONTARIO***

CITY           SKY/WX    TMP DP  RH WIND       PRES   REMARKS
GERALDTON      MOCLDY    52  45  76 S15G22    29.63F
THUNDER BAY    MOCLDY    36  36 100 CALM      29.68F
SIOUX LOOKOUT  MOCLDY    57  39  51 SW13G23   29.40F
TORONTO        MOSUNNY   54  45  71 SW6       30.23R
BIG TROUT LK   PTCLDY    41  36  81 SE17G23   29.22F
PICKLE LAKE    MOCLDY    52  39  62 S16G23    29.33F
DRYDEN         MOCLDY    57  39  51 SW15G24   29.43F
KENORA         PTCLDY    55  39  54 SW15G21   29.41F
$$
                *** MANITOBA***

CITY           SKY/WX    TMP DP  RH WIND       PRES   REMARKS
BRANDON        PTCLDY    45  30  57 W28G35    29.56R
DAUPHIN        MOCLDY    46  30  53 W44G58    29.34S
ISLAND LAKE    PTCLDY    54  36  50 SW14G21   28.94F
PILOT MOUND      N/A     46  32  57 W15G33      N/A
THE PAS        LGT RAIN  39  36  87 W37G49    28.89R FOG
THOMPSON       LGT RAIN  39  34  81 E10G17    28.70F
WINNIPEG       CLOUDY    52  36  54 W26G37    29.49R
LYNN LAKE      LGT RAIN  34  34 100 NE13G18   28.80S FOG     WCI  25
CHURCHILL      SNOW      32  30  93 E33G41    29.29F VSB 3/8 WCI  17
GILLAM         CLOUDY    34  32  93 E14G23    28.98F WCI  24
$$
                ***SASKATCHEWAN***

CITY           SKY/WX    TMP DP  RH WIND       PRES   REMARKS
ESTEVAN        PTCLDY    41  21  45 W22G30    29.75S
KINDERSLEY     CLEAR     34  23  64 W20G31    29.78R WCI  22
LLOYDMINSTER   CLEAR     34  28  80 W23G31    29.65R WCI  22
PRINCE ALBERT  MOCLDY    39  27  60 W32G44    29.40R
REGINA         PTCLDY    39  23  52 W28G38    29.69R
YORKTON        CLEAR     41  25  52 W31G48    29.45R
N. BATTLEFORD  CLEAR     37  25  60 W24G38    29.62R
LA RONGE       LGT RAIN  36  34  93 W30G40    29.11R
SASKATOON      CLEAR     39  23  52 W30G41    29.59R
SWIFT CURRENT  CLEAR     34  23  64 W22G30    29.80R WCI  22
$$
NOTE: THESE ARE AUTOMATED STATIONS WITH LIMITED QUALITY CONTROL
      "FAIR" INDICATES FEW OR NO CLOUDS BELOW 12,000 FEET WITH NO
      SIGNIFICANT WEATHER AND/OR OBSTRUCTIONS TO VISIBILITY.
      SKY/WX - SKY CONDITION AND SIGNIFICANT WEATHER.
      TMP - AIR TEMPERATURE.    DP   - DEWPOINT TEMPERATURE.
      RH  - RELATIVE HUMIDITY.  PRES - PRESSURE.
      HX  - HEAT INDEX.         WCI  - WIND CHILL INDEX.
$




USA.gov is the U.S. government's official web portal to all federal, state and local government web resources and services.